User: anonymous   Login
Location: Haliburton Scout Reserve
(45.0900°N, 78.3200°W)
Time: 14:02:08
(UTC-04:00)
Language:

S-56A Canister/Altair - Orbit

View from above orbital plane
View from above orbital plane
View from above satellite
View from above satellite

Ground track
Ground track

The orbit data is extracted from the following two-line orbital elements,

1 00082U 61004B   24149.55779088  .00000593  00000-0  52331-3 0  9994
2 00082  38.8570 262.2092 1165098 199.4928 155.7387 12.26763459984707
Epoch (UTC): 28 May 2024 13:23:13
Eccentricity: 0.1165098
inclination: 38.8570°
perigee height: 638 km
apogee height: 2488 km
right ascension of ascending node: 262.2092°
argument of perigee: 199.4928°
revolutions per day: 12.26763459
mean anomaly at epoch: 155.7387°
orbit number at epoch: 98470

The dashed part of the orbit path shows where the satellite is in the earth's shadow,  

DLR